Location: Buisson
(44.2787°N, 4.9969°E)
Time: 07:10:45
(UTC+00:00)

Cosmos 1680 Rocket - Pass Details

Date: 18 April 2021
Orbit: 759 x 781 km, 74.1° (Epoch: 05 May)

Event Time Altitude Azimuth Distance (km) Brightness Sun altitude
Rises 02:26:01 0° 338° (NNW) 3,262 7.1 -23.2°
Reaches altitude 10° 02:28:24 10° 339° (NNW) 2,334 6.3 -22.9°
Maximum altitude 02:33:43 87° 253° (WSW) 786 3.4 -22.2°
Enters shadow 02:37:45 18° 162° (SSE) 1,839 5.2 -21.7°
